[[{"header":{"parameterUnit":"m.s-1","parameterCategory":1,"la1":30.2991,"la2":30.254,"lo1":-89.0895,"lo2":-89.0444,"dy":0.0017,"dx":0.0017,"nx":28,"ny":28,"refTime":"2023-08-02T03:00:00:Z","depth":0,"parameterNumber":2,"parameterNumberName":"U-component_of_WINDS"},"data":[0,0,0,0,0,0,0,0,0,0,0,0,0,0,0,0,0,0,0,0,0,0,0,0,0,0,0,0,0,0,0,0,0,0,0,0,0,0,0,0,0,0,0,0,0,0,0,0,0,0,0,0,0,0,0,0,0,0,-1.4647,-1.4648,0,-1.4765,-1.4767,-1.4768,-1.4773,-1.4772,-1.477,-1.4769,-1.4889,-1.4893,-1.4898,0,0,0,0,0,0,0,0,0,0,0,0,0,-1.4424,-1.4428,-1.4647,-1.4648,-1.465,-1.4765,-1.4767,-1.4768,-1.4773,-1.4771,-1.477,-1.4768,-1.4887,-1.4893,-1.4898,0,0,0,0,0,0,0,0,0,0,0,0,0,-1.453,-1.443,-1.4646,-1.4666,-1.4669,-1.4765,-1.4767,-1.4769,-1.4774,-1.4771,-1.4769,-1.4767,-1.4885,-1.4892,-1.4899,-1.4982,0,0,-1.4919,-1.4922,0,0,0,0,0,0,0,0,-1.4524,-1.4538,-1.4662,-1.4665,-1.4668,-1.4752,-1.4732,-1.484,-1.4774,-1.4734,-1.4769,-1.4766,-1.4845,-1.4855,-1.4882,-1.4988,-1.4993,-1.492,-1.4924,-1.4927,-1.4929,0,0,0,0,0,0,0,-1.4516,-1.4533,-1.4694,-1.4663,-1.4668,-1.4669,-1.4681,-1.4753,-1.48,-1.4737,-1.4738,-1.4752,-1.4846,-1.4875,-1.4884,-1.4995,-1.492,-1.4926,-1.493,-1.4933,-1.5177,-1.518,0,0,0,0,0,0,-1.4505,-1.4527,-1.469,-1.4697,-1.4589,-1.4675,-1.4689,-1.4727,-1.4799,-1.4808,-1.4753,-1.4752,-1.4865,-1.4877,-1.4889,-1.4992,-1.4927,-1.4933,-1.4937,-1.5175,-1.5178,-1.5181,0,0,0,0,0,0,-1.45,-1.452,-1.4685,-1.4612,-1.4633,-1.4681,-1.4724,-1.4731,-1.476,-1.4811,-1.482,-1.4774,-1.4863,-1.4879,-1.496,-1.4996,-1.4936,-1.4942,-1.5172,-1.5176,-1.5179,-1.5199,0,0,0,0,0,0,-1.4494,-1.4518,-1.455,-1.4613,-1.4637,-1.4754,-1.4726,-1.4735,-1.4771,-1.477,-1.4833,-1.4841,-1.4863,-1.4949,-1.4966,-1.5004,-1.4948,-1.5169,-1.5174,-1.5178,-1.5195,-1.5203,-1.5209,0,0,0,0,0,-1.4486,-1.455,-1.4552,-1.4571,-1.4678,-1.4756,-1.477,-1.4794,-1.4774,-1.4807,-1.4841,-1.4839,-1.499,-1.4958,-1.4977,-1.5017,-1.5167,-1.5172,-1.5178,-1.5192,-1.5201,-1.5209,0,0,0,0,0,0,-1.449,-1.4559,-1.4561,-1.4648,-1.4696,-1.4757,-1.4798,-1.4803,-1.4857,-1.4853,-1.488,-1.4895,-1.4974,-1.5004,-1.4967,-1.5103,-1.5076,-1.5086,-1.508,-1.509,-1.5097,-1.5087,-1.4953,0,0,0,0,0,-1.4501,-1.4558,-1.4616,-1.4686,-1.4711,-1.4751,-1.4785,-1.48,-1.4851,-1.4871,-1.491,-1.4959,-1.5018,-1.5055,-1.5112,-1.52,-1.5214,-1.5238,-1.5245,-1.525,-1.5258,-1.5307,-1.5319,-1.5199,-1.5199,-1.5199,0,0,-1.4524,-1.4569,-1.4603,-1.4688,-1.4727,-1.4786,-1.4768,-1.483,-1.4874,-1.488,-1.4958,-1.4989,-1.5046,-1.5131,-1.517,-1.5158,-1.5294,-1.5257,-1.5261,-1.5266,-1.5314,-1.5325,-1.5336,-1.5203,-1.5202,-1.5201,0,0,-1.4596,-1.4636,-1.4699,-1.4739,-1.4799,-1.4826,-1.4841,-1.4902,-1.4923,-1.5002,-1.5008,-1.5061,-1.5161,-1.5202,-1.5235,-1.5325,-1.5326,-1.5343,-1.5379,-1.5427,-1.5437,-1.5445,-1.5477,-1.5488,-1.535,-1.535,-1.5351,0,-1.4616,-1.4706,-1.4731,-1.4795,-1.4832,-1.4842,-1.4907,-1.4944,-1.5019,-1.5045,-1.5031,-1.5157,-1.5196,-1.5291,-1.5313,-1.534,-1.5358,-1.5335,-1.5433,-1.5442,-1.545,-1.5481,-1.5493,-1.5352,-1.5352,-1.5352,-1.5352,0,-1.4728,-1.479,-1.4835,-1.4908,-1.4951,-1.5014,-1.505,-1.509,-1.5102,-1.513,-1.5211,-1.5258,-1.5325,-1.5349,-1.536,-1.5446,-1.5436,-1.5428,-1.5401,-1.5463,-1.5492,-1.5504,-1.5354,-1.5354,-1.5353,-1.5353,0,0,-1.4803,-1.4892,-1.4908,-1.4942,-1.501,-1.5058,-1.5123,-1.5189,-1.5223,-1.5275,-1.533,-1.5416,-1.5408,-1.5447,-1.5463,-1.5505,-1.5574,-1.5491,-1.5493,-1.5505,-1.5671,-1.5677,-1.569,-1.5575,-1.5578,-1.558,-1.5666,0,-1.4883,-1.4998,-1.5024,-1.5123,-1.5181,-1.5192,-1.5249,-1.5297,-1.5325,-1.5379,-1.541,-1.547,-1.5456,-1.5479,-1.5522,-1.5556,-1.5607,-1.5551,-1.5626,-1.5629,-1.5611,-1.5705,-1.5711,-1.579,-1.5678,-1.568,-1.5681,0,-1.4989,-1.5045,-1.5151,-1.5212,-1.5238,-1.5288,-1.5351,-1.5402,-1.5457,-1.5475,-1.5519,-1.5531,-1.56,-1.5571,-1.5665,-1.5626,-1.5659,-1.5681,-1.5684,-1.5691,-1.5658,-1.5714,-1.5816,-1.5828,-1.57,-1.5698,-1.5697,0,-1.5033,-1.5135,-1.5211,-1.524,-1.5314,-1.5349,-1.5382,-1.5435,-1.5474,-1.5529,-1.5555,-1.5617,-1.5651,-1.57,-1.5729,-1.5705,-1.5821,-1.5795,-1.5838,-1.5837,-1.586,-1.5858,-1.5968,-1.5883,-1.5883,-1.5883,-1.5882,0,-1.5118,-1.5182,-1.5232,-1.5279,-1.5351,-1.5382,-1.5452,-1.5485,-1.5532,-1.5586,-1.5599,-1.5649,-1.5685,-1.574,-1.5764,-1.5838,-1.5854,-1.587,-1.5875,-1.5868,-1.5866,-1.5889,-1.5884,-1.5886,-1.5885,-1.5884,-1.5884,0,-1.5179,-1.5215,-1.5299,-1.5363,-1.5381,-1.5431,-1.5486,-1.5532,-1.5562,-1.5629,-1.5647,-1.5693,-1.5759,-1.5794,-1.5875,-1.5891,-1.5975,-1.5977,-1.5956,-1.5958,-1.5999,-1.5994,-1.6127,-1.6146,-1.6049,-1.605,-1.6051,0,-1.523,-1.5279,-1.5349,-1.5386,-1.542,-1.5479,-1.5519,-1.5552,-1.5593,-1.566,-1.5698,-1.5765,-1.582,-1.5924,-1.5965,-1.6028,-1.6032,-1.6074,-1.6041,-1.6033,-1.6032,-1.6028,-1.6033,-1.6079,-1.608,-1.6081,-1.6081,0,-1.5316,-1.5332,-1.539,-1.5454,-1.5502,-1.5554,-1.5605,-1.5634,-1.5675,-1.5721,-1.5789,-1.5831,-1.5916,-1.5982,-1.6048,-1.6082,-1.6088,-1.6092,-1.6105,-1.6098,-1.6083,-1.6091,-1.5971,-1.6088,-1.6088,-1.6087,-1.6087,-1.6086,-1.5373,-1.5418,-1.5475,-1.5539,-1.5581,-1.5629,-1.5676,-1.5712,-1.577,-1.5841,-1.5857,-1.5929,-1.5984,-1.6074,-1.611,-1.6167,-1.6158,-1.6177,-1.6182,-1.6186,-1.6187,-1.6076,-1.6179,-1.6179,-1.6179,-1.6179,-1.6179,0,-1.546,-1.5497,-1.5556,-1.5628,-1.5679,-1.5682,-1.574,-1.5782,-1.5845,-1.5896,-1.595,-1.6029,-1.6094,-1.6141,-1.6207,-1.6243,-1.6248,-1.6259,-1.6256,-1.6264,-1.6191,-1.6173,-1.6254,-1.6254,-1.6254,-1.6254,-1.6254,-1.6254,-1.5511,-1.5587,-1.561,-1.5708,-1.5746,-1.5816,-1.5849,-1.5894,-1.5935,-1.6022,-1.6076,-1.6107,-1.6157,-1.6227,-1.6287,-1.6299,-1.6323,-1.6334,-1.6346,-1.6277,-1.6269,-1.6261,-1.6244,-1.6339,-1.6339,-1.6413,-1.6414,-1.6415]},{"header":{"parameterUnit":"m.s-1","parameterCategory":1,"la1":30.2991,"la2":30.254,"lo1":-89.0895,"lo2":-89.0444,"dy":0.0017,"dx":0.0017,"nx":28,"ny":28,"refTime":"2023-08-02T03:00:00:Z","depth":0,"parameterNumber":3,"parameterNumberName":"V-component_of_WINDS"},"data":[0,0,0,0,0,0,0,0,0,0,0,0,0,0,0,0,0,0,0,0,0,0,0,0,0,0,0,0,0,0,0,0,0,0,0,0,0,0,0,0,0,0,0,0,0,0,0,0,0,0,0,0,0,0,0,0,0,0,-2.5021,-2.5021,0,-2.5072,-2.5072,-2.5073,-2.5045,-2.5044,-2.5042,-2.5041,-2.5091,-2.5094,-2.5096,0,0,0,0,0,0,0,0,0,0,0,0,0,-2.4896,-2.4898,-2.502,-2.5021,-2.5022,-2.5072,-2.5072,-2.5073,-2.5045,-2.5044,-2.5042,-2.504,-2.509,-2.5094,-2.5097,0,0,0,0,0,0,0,0,0,0,0,0,0,-2.4949,-2.4899,-2.502,-2.5014,-2.5014,-2.5072,-2.5073,-2.5073,-2.5046,-2.5043,-2.5041,-2.5039,-2.5089,-2.5093,-2.5097,-2.5164,0,0,-2.5109,-2.5111,0,0,0,0,0,0,0,0,-2.4946,-2.4953,-2.5014,-2.5014,-2.5014,-2.505,-2.5047,-2.5104,-2.5046,-2.5033,-2.5041,-2.5038,-2.5079,-2.5084,-2.5098,-2.5166,-2.5168,-2.511,-2.5112,-2.5114,-2.5115,0,0,0,0,0,0,0,-2.4942,-2.4951,-2.5041,-2.5015,-2.5015,-2.5008,-2.5013,-2.5058,-2.5067,-2.5034,-2.5033,-2.5039,-2.5079,-2.5094,-2.5099,-2.5169,-2.511,-2.5113,-2.5116,-2.5117,-2.5294,-2.5296,0,0,0,0,0,0,-2.4939,-2.4948,-2.5039,-2.5042,-2.4974,-2.5012,-2.5017,-2.5041,-2.5067,-2.5069,-2.5041,-2.5038,-2.5088,-2.5094,-2.5101,-2.518,-2.5114,-2.5117,-2.512,-2.5291,-2.5294,-2.5297,0,0,0,0,0,0,-2.4937,-2.4948,-2.5037,-2.4995,-2.5006,-2.5016,-2.5042,-2.5043,-2.5058,-2.5072,-2.5073,-2.5055,-2.5087,-2.5095,-2.5148,-2.5181,-2.5119,-2.5123,-2.5289,-2.5292,-2.5295,-2.534,0,0,0,0,0,0,-2.4933,-2.4947,-2.4973,-2.4996,-2.5008,-2.5085,-2.5044,-2.5045,-2.5065,-2.5062,-2.5085,-2.5087,-2.5086,-2.5143,-2.5152,-2.5186,-2.5126,-2.5286,-2.529,-2.5294,-2.5335,-2.5344,-2.5352,0,0,0,0,0,-2.4929,-2.4983,-2.4974,-2.4985,-2.5041,-2.5087,-2.5094,-2.5092,-2.5068,-2.5094,-2.5103,-2.5086,-2.5176,-2.5148,-2.5159,-2.5194,-2.5284,-2.5289,-2.5294,-2.5332,-2.5343,-2.5352,0,0,0,0,0,0,-2.4963,-2.4986,-2.4977,-2.504,-2.5062,-2.5082,-2.5114,-2.5103,-2.5132,-2.5127,-2.5123,-2.5128,-2.5184,-2.5194,-2.5163,-2.526,-2.5226,-2.5234,-2.5251,-2.5262,-2.527,-2.5266,-2.5129,0,0,0,0,0,-2.4978,-2.5014,-2.5032,-2.5086,-2.5097,-2.5104,-2.5124,-2.5121,-2.5143,-2.5152,-2.5164,-2.5186,-2.5219,-2.5241,-2.5272,-2.5337,-2.5341,-2.5366,-2.5374,-2.5381,-2.5388,-2.5423,-2.5434,-2.5314,-2.5314,-2.5314,0,0,-2.5009,-2.5026,-2.5049,-2.5093,-2.511,-2.5146,-2.5112,-2.5152,-2.518,-2.5158,-2.5209,-2.5219,-2.5243,-2.5302,-2.5329,-2.5312,-2.5422,-2.5388,-2.5393,-2.5396,-2.5429,-2.5441,-2.5451,-2.5317,-2.5317,-2.5316,0,0,-2.5085,-2.5101,-2.5148,-2.5166,-2.5191,-2.5196,-2.5207,-2.5229,-2.5235,-2.5287,-2.5271,-2.5303,-2.536,-2.5377,-2.5394,-2.5476,-2.5462,-2.5486,-2.5529,-2.5564,-2.5573,-2.5581,-2.5611,-2.5621,-2.5492,-2.5493,-2.5493,0,-2.512,-2.5176,-2.5173,-2.5215,-2.5235,-2.5217,-2.5264,-2.5281,-2.5315,-2.5329,-2.531,-2.5382,-2.5396,-2.546,-2.548,-2.5493,-2.5506,-2.5483,-2.5572,-2.558,-2.5588,-2.5616,-2.5627,-2.5495,-2.5495,-2.5495,-2.5494,0,-2.5218,-2.5257,-2.5291,-2.5326,-2.5349,-2.5393,-2.5397,-2.5421,-2.5415,-2.5421,-2.5474,-2.5491,-2.5525,-2.554,-2.5534,-2.5602,-2.5591,-2.5572,-2.5539,-2.5602,-2.5629,-2.5639,-2.5499,-2.5498,-2.5497,-2.5497,0,0,-2.5317,-2.5349,-2.5362,-2.5378,-2.5405,-2.5434,-2.5477,-2.5512,-2.5532,-2.5556,-2.5592,-2.5641,-2.5624,-2.5642,-2.5639,-2.5669,-2.5733,-2.5646,-2.5646,-2.5662,-2.5808,-2.5823,-2.5835,-2.5724,-2.5726,-2.5727,-2.5807,0,-2.5394,-2.5471,-2.547,-2.554,-2.5576,-2.556,-2.5597,-2.5617,-2.5624,-2.5655,-2.5661,-2.5696,-2.5671,-2.5682,-2.5711,-2.5719,-2.5762,-2.5713,-2.5757,-2.5758,-2.5752,-2.5849,-2.5865,-2.5939,-2.5817,-2.5819,-2.582,0,-2.5495,-2.5524,-2.5598,-2.562,-2.5635,-2.5669,-2.57,-2.573,-2.5752,-2.5755,-2.5776,-2.5768,-2.5811,-2.5775,-2.5835,-2.5801,-2.5819,-2.5825,-2.5828,-2.5832,-2.5793,-2.5856,-2.5962,-2.5974,-2.5836,-2.5835,-2.5833,0,-2.556,-2.5617,-2.5669,-2.5683,-2.5709,-2.5734,-2.5746,-2.5766,-2.5787,-2.5814,-2.5827,-2.5858,-2.5876,-2.59,-2.59,-2.5874,-2.596,-2.5924,-2.5963,-2.5963,-2.5982,-2.5981,-2.6093,-2.5993,-2.5992,-2.5992,-2.5992,0,-2.5647,-2.5694,-2.5699,-2.5731,-2.5782,-2.5779,-2.583,-2.5839,-2.5858,-2.5891,-2.5878,-2.5909,-2.5907,-2.5939,-2.5939,-2.5988,-2.5995,-2.5998,-2.5998,-2.6,-2.6,-2.6012,-2.6007,-2.5995,-2.5995,-2.5994,-2.5993,0,-2.5729,-2.5734,-2.579,-2.5811,-2.5817,-2.5854,-2.5871,-2.5901,-2.5906,-2.5948,-2.5958,-2.5966,-2.6003,-2.6005,-2.6047,-2.6047,-2.6106,-2.61,-2.6099,-2.6098,-2.6136,-2.6133,-2.626,-2.6277,-2.6166,-2.6167,-2.6168,0,-2.5784,-2.582,-2.5845,-2.5866,-2.588,-2.5915,-2.5936,-2.5935,-2.5957,-2.5986,-2.6012,-2.6047,-2.6075,-2.6134,-2.6143,-2.6175,-2.6169,-2.6212,-2.6174,-2.6175,-2.617,-2.6168,-2.6172,-2.6219,-2.622,-2.6221,-2.6222,0,-2.5882,-2.5883,-2.5915,-2.5947,-2.5973,-2.5998,-2.6022,-2.604,-2.6042,-2.6067,-2.6105,-2.6127,-2.6169,-2.6204,-2.6235,-2.6247,-2.6235,-2.6234,-2.6244,-2.6247,-2.6245,-2.6247,-2.6119,-2.6231,-2.623,-2.6229,-2.6229,-2.6229,-2.5953,-2.5983,-2.6006,-2.6041,-2.6059,-2.6081,-2.6111,-2.612,-2.6151,-2.6187,-2.6184,-2.6225,-2.6246,-2.6287,-2.6301,-2.6332,-2.6318,-2.6333,-2.6337,-2.6341,-2.6345,-2.624,-2.6338,-2.6338,-2.6337,-2.6337,-2.6337,0,-2.605,-2.6064,-2.6097,-2.6131,-2.6158,-2.6145,-2.617,-2.6194,-2.6231,-2.6252,-2.628,-2.6323,-2.6357,-2.6369,-2.6401,-2.6424,-2.642,-2.6433,-2.6432,-2.6434,-2.6356,-2.6344,-2.6436,-2.6436,-2.6436,-2.6436,-2.6436,-2.6436,-2.6105,-2.6156,-2.6159,-2.6219,-2.6232,-2.6273,-2.6289,-2.6309,-2.6326,-2.6374,-2.6403,-2.641,-2.6428,-2.6462,-2.6492,-2.6494,-2.6507,-2.6523,-2.6523,-2.645,-2.644,-2.643,-2.6419,-2.6526,-2.6526,-2.6599,-2.6599,-2.66]}]]